OBJECT AX, 57323

Orbit data source: Space-Track

You're viewing an Uncataloged Satellite

Recently launched and/or uncataloged satellites may have evolving metadata. Metadata may include but not limited to: Owner, Maufacturer, Bus, Motor, and Mission.

OBJECT AX, 57323 is a satellite in SSO that was launched on Tue, 27 Jun 2023 UTC via a SOYUZ-2-1B launch vehicle from the Vostochny Cosmodrome (VOSTO). Unknown objects in Earth's orbit typically refer to objects detected orbiting the Earth but have not yet been identified or cataloged. These objects could be anything from previously untracked satellites, spent rocket stages, debris from satellite collisions, or even natural meteoroids temporarily captured by Earth's gravity.

Loading next visibility...
Identifier
57323, 2023-091AX
Orbit
SSO
Country
Flag of TBDTBD
Related business
Flag of RUOOO Stratonavtika (RU)
Manufacturer
MKS
Mission
Commercial Communications
Bus & Motor
TINYSAT 1TU, Unknown motor
Mass
0.125 kg wet, 0.125 kg dry
Launch date (UTC)
2023-06-27 (2 years ago)
Launch vehicle
SOYUZ-2-1B
Launch site
Vostochny Cosmodrome (VOSTO)
Object type
Unknown
Shape & HBR
Box, 0.0 m
Radar Cross Section
0.004 m², Small (<0.1 m²)

Expand to show TLE details & history
Last TLE update: 6 hours ago

TLE from 6 hours ago
0 OBJECT AX
1 57323U 23091AX  25304.69980119  .00059784  00000-0  13203-2 0  9996
2 57323  97.5377  10.3002 0008487 156.6150 203.5485 15.43626774127919
Epoch: 2025-10-31T16:47Z
TLE epoch observation values (Epoch: 2025-10-31T16:47:42.822Z)
Latitude
-0.00006°
Longitude
78.1313°
Altitude
443.838 km
Speed
7.643 km/s
True Right ascension
00h 41m 12s
True Declination
0° 00' 00"
Sunlit
Object was in full shadow at epoch
Visualization orbit readout
Latitude
Unknown
Longitude
Unknown
Altitude
Unknown
Speed
Unknown
Apparent Right ascension
Unknown
Apparent Declination
Unknown
Sunlit
N/A
Visualization observer readout
Local Sidereal Time
18:18:16
Azimuth
Unknown
Elevation
Unknown
Doppler factor
Unknown
Orbital elements
Apogee altitude
438.136 km
Perigee altitude
426.576 km
Semi-major axis
6,810.493 km
Eccentricity
0.00085
Inclination
97.5377°
RAAN
10.3002°
Arg. of periapsis
156.615°
True anomaly
203.50968°
Mean anomaly
203.5485°
Eccentric anomaly
203.52909°
Mean motion
3.86167 °/min
Orbital period
93.22 mins
BSTAR
0.0013203
Loading maneuver chart data...
Computing Atmospheric mass density...
Loading historical data...
Loading historical data...
Loading historical data...
Loading historical data...
Loading historical data...
Loading historical data...
Loading historical data...

Documentation

Showing up to 5 results
|